Skip Page Navigation
NASA JPL Caltech
NASA Logo - Jet Propulsion Laboratory + View the NASA Portal
+ Center for Near-Earth Object Studies
JPL Home Earth Solar System Stars & Galaxies Technology
JPL Solar System Dynamics
BODIES ORBITS EPHEMERIDES TOOLS PHYSICAL DATA DISCOVERY FAQ SITE MAP
IMPORTANT: The SSD Announcement email list is now available. Major changes are coming in the near future, including possible hostname and/or URL changes. To be notified of such changes, subscribe to this email list.

Please visit this page for more details.


JPL Small-Body Database Browser
Search: [ help ]  
6011 Tozzi (1990 QU5)
Classification: Main-belt Asteroid          SPK-ID: 2006011
Ephemeris | Orbit Diagram | Orbital Elements | Mission Design | Physical Parameters | Discovery Circumstances ]

[ hide orbit diagram ]

For accurate long-term ephemerides, please instead use our Horizons system.This orbit viewer was implemented using two-body methods, and hence should not be used for determining accurate long-term trajectories (over several years or decades) or planetary encounter circumstances.


[ revert to old Java-based viewer ]

Orbital Elements at Epoch 2458600.5 (2019-Apr-27.0) TDB
Reference: JPL 34 (heliocentric ecliptic J2000)
 Element Value Uncertainty (1-sigma)   Units 
e .1504180407801456 3.7241e-08  
a 2.718749058319534 1.199e-08 au
q 2.309800151594244 1.0139e-07 au
i 2.499754903855228 4.5045e-06 deg
node 195.7150500787447 8.1395e-05 deg
peri 116.739286351874 8.254e-05 deg
M 159.0417866813717 1.4092e-05 deg
tp 2457877.129393086773
(2017-May-03.62939309)
6.4074e-05 TDB
period 1637.389920741273
4.48
1.0832e-05
2.966e-08
d
yr
n .2198621082490981 1.4544e-09 deg/d
Q 3.127697965044824 1.3794e-08 au
  Orbit Determination Parameters
   # obs. used (total)      2250  
   data-arc span      17278 days (47.30 yr)  
   first obs. used      1972-08-17  
   last obs. used      2019-12-07  
   planetary ephem.      DE431  
   SB-pert. ephem.      SB431-N16  
   condition code      0  
   norm. resid. RMS      .47818  
   source      ORB  
   producer      Otto Matic  
   solution date      2019-Dec-13 22:07:29  

Additional Information
 Earth MOID = 1.29622 au 
 Jupiter MOID = 2.14042 au 
 T_jup = 3.342 
[ show covariance matrix ]

Ephemeris | Orbit Diagram | Orbital Elements | Mission Design | Physical Parameters | Discovery Circumstances ]

Physical Parameter Table
Parameter Symbol Value Units Sigma Reference Notes
absolute magnitude H 12.9   n/a MPO337304  
diameter diameter 7.363 km 0.264 urn:nasa:pds:neowise_diameters_albedos::2.0[mainbelt] (http://adsabs.harvard.edu/abs/2011ApJ...741...68M)  
geometric albedo albedo 0.206   0.017 urn:nasa:pds:neowise_diameters_albedos::2.0[mainbelt] (http://adsabs.harvard.edu/abs/2011ApJ...741...68M)  

6011 Tozzi (1990 QU5)          Discovered 1990-Aug-29 by Holt, H. E. at Palomar
Reference: DISCOVERY.DBLast Updated: 2003-08-29

Alternate Designations
 1990 QU5 = 1972 QR = 1980 GX1 = 1981 RB3 = 1986 TX17 = 1989 GU7 
Ephemeris | Orbit Diagram | Orbital Elements | Mission Design | Physical Parameters | Discovery Circumstances ]
ABOUT SSD CREDITS/AWARDS PRIVACY/COPYRIGHT GLOSSARY LINKS
FirstGov 2020-Jan-26 18:07 UT
(server date/time)  
NASA Home Page
Site Manager:   Ryan S. Park
Webmaster  Alan B. Chamberlin